{"data":{"norad_id":53653,"epoch":"2026-05-25T04:00:03.998880Z","epoch_age_seconds":70838,"freshness":"FRESH","line1":"1 53653U 22105F   26145.16671295  .00093994  00000+0  24965-2 0  9998","line2":"2 53653  97.6037  27.0879 0001501  74.3012  44.9668 15.37907629  5824","mean_motion":15.37907629,"eccentricity":0.0001501,"inclination_deg":97.6037,"raan_deg":27.0879,"arg_perigee_deg":74.3012,"mean_anomaly_deg":44.9668,"bstar":0.0024965,"rev_number":582,"period_min":93.633711989343,"perigee_km":451.27239946519,"apogee_km":453.32289594643,"semimajor_km":6830.4346477058,"source":"CELESTRAK","updated_at":"2026-05-25T13:38:17.485215Z"}}